TimeEST,TemperatureF,Dew PointF,Humidity,Sea Level PressureIn,VisibilityMPH,Wind Direction,Wind SpeedMPH,Gust SpeedMPH,PrecipitationIn,Events,Conditions,WindDirDegrees,DateUTC
12:54 AM,14.0,7.0,74,29.94,10.0,West,10.4,18.4,N/A,,Overcast,270,2013-01-02 05:54:00
1:18 AM,12.2,6.8,79,29.88,10.0,West,9.2,-,N/A,,Partly Cloudy,260,2013-01-02 06:18:00
1:54 AM,12.9,6.1,74,29.96,10.0,West,10.4,-,N/A,,Clear,280,2013-01-02 06:54:00
2:54 AM,12.0,6.1,77,29.97,10.0,Variable,4.6,-,N/A,,Clear,0,2013-01-02 07:54:00
3:54 AM,10.9,5.0,77,29.95,10.0,Calm,Calm,-,N/A,,Clear,0,2013-01-02 08:54:00
4:54 AM,7.0,3.0,84,29.96,10.0,Calm,Calm,-,N/A,,Clear,0,2013-01-02 09:54:00
5:54 AM,9.0,3.9,80,29.95,10.0,South,4.6,-,N/A,,Partly Cloudy,180,2013-01-02 10:54:00
6:54 AM,6.1,3.0,87,29.95,10.0,Calm,Calm,-,N/A,,Mostly Cloudy,0,2013-01-02 11:54:00
7:54 AM,12.0,6.1,77,29.95,10.0,SSW,5.8,-,N/A,,Overcast,210,2013-01-02 12:54:00
8:54 AM,14.0,7.0,74,29.95,8.0,West,5.8,-,N/A,,Overcast,260,2013-01-02 13:54:00
9:05 AM,17.6,6.8,63,29.88,10.0,West,13.8,-,N/A,,Overcast,270,2013-01-02 14:05:00
9:54 AM,18.0,9.0,68,29.96,7.0,West,13.8,-,0.00,,Overcast,270,2013-01-02 14:54:00
10:54 AM,19.0,10.0,68,29.97,4.0,West,17.3,26.5,0.00,Snow,Light Snow,280,2013-01-02 15:54:00
11:54 AM,21.0,12.0,68,29.94,6.0,WNW,13.8,26.5,0.00,Snow,Light Snow,290,2013-01-02 16:54:00
12:54 PM,21.9,12.9,68,29.94,10.0,WNW,13.8,24.2,0.00,,Overcast,290,2013-01-02 17:54:00
1:29 PM,21.2,12.2,68,29.88,10.0,West,19.6,29.9,N/A,,Overcast,280,2013-01-02 18:29:00
1:54 PM,21.9,12.9,68,29.95,10.0,West,13.8,19.6,N/A,,Overcast,280,2013-01-02 18:54:00
2:08 PM,21.2,12.2,68,29.89,10.0,WNW,11.5,26.5,N/A,,Overcast,290,2013-01-02 19:08:00
2:54 PM,21.9,12.0,66,29.98,10.0,WNW,13.8,24.2,N/A,,Overcast,290,2013-01-02 19:54:00
3:29 PM,21.2,12.2,68,29.93,10.0,West,12.7,24.2,N/A,,Overcast,280,2013-01-02 20:29:00
4:19 PM,21.2,10.4,63,29.95,10.0,West,12.7,21.9,N/A,,Overcast,280,2013-01-02 21:19:00
4:54 PM,21.0,10.9,65,30.03,10.0,WNW,15.0,21.9,N/A,,Overcast,290,2013-01-02 21:54:00
5:54 PM,19.0,8.1,62,30.06,10.0,West,16.1,21.9,N/A,,Partly Cloudy,280,2013-01-02 22:54:00
6:54 PM,18.0,6.1,60,30.08,10.0,Variable,6.9,19.6,N/A,,Partly Cloudy,0,2013-01-02 23:54:00
7:54 PM,16.0,5.0,62,30.09,10.0,WNW,10.4,17.3,N/A,,Clear,300,2013-01-03 00:54:00
8:54 PM,12.9,3.9,67,30.11,10.0,WNW,6.9,-,N/A,,Clear,290,2013-01-03 01:54:00
9:54 PM,9.0,1.0,70,30.13,10.0,North,9.2,-,N/A,,Clear,350,2013-01-03 02:54:00
10:54 PM,6.1,-2.9,67,30.15,10.0,NW,8.1,-,N/A,,Clear,320,2013-01-03 03:54:00
11:54 PM,5.0,-4.0,66,30.17,10.0,NW,6.9,-,N/A,,Clear,320,2013-01-03 04:54:00